Вернуться в каталог

DELTA 1 DEB

АктивенPO
NORAD 14910·DEBRIS·🇺🇸 United States

Запущен Mar 5, 1978 с Vandenberg Space Force Base

Loading…

Ближайшие Пролёты (ближайшие 24 часа)

TLE

СвежийSource: Space-Track

Эпоха: Sep 13, 2026, 21:40 UTC

1 14910U 78026GK  26256.90333463  .00000793  00000-0  34487-3 0  9998
2 14910  99.1214 240.7086 0014258 253.6889 174.5898 14.27080476204277

Отслеживайте DELTA 1 DEB в реальном времени с AllMySat

Download on the App Store